Weather History for Berlin, NH

Change the Weather History Date:

Sunday, June 30, 2013

  Actual Average Record
Temperature  
Mean Temperature 72 °F -  
Max Temperature 84 °F 75 °F 89 °F (2014)
Min Temperature 62 °F 47 °F 41 °F (2010)
Cooling Degree Days 7    
Growing Degree Days 22 (Base 50)    
Moisture  
Dew Point 63 °F    
Average Humidity 74    
Maximum Humidity 97    
Minimum Humidity 47    
Precipitation  
Precipitation 0.08 in - - ()
Sea Level Pressure  
Sea Level Pressure 29.82 in    
Wind  
Wind Speed 1 mph (NW)    
Max Wind Speed 6 mph    
Max Gust Speed -    
Visibility 9 miles    
Events Rain    
Averages and records for this station are not official NWS values.
T = Trace of Precipitation, MM = Missing Value Source: NWS Daily Summary

Daily Weather History Graph

Daily Weather History Graph

Search for Another Location

Airport:

Trip Planner

Search our weather history database for the weather conditions in past years. The results will help you decide how hot, cold, wet, or windy it might be!

Date:

Astronomy

Jun. 30, 2013 Rise Set
Actual Time 5:03 AM EDT 8:33 PM EDT
Civil Twilight 4:26 AM EDT 9:10 PM EDT
Nautical Twilight 3:37 AM EDT 9:58 PM EDT
Astronomical Twilight 2:35 AM EDT 11:00 PM EDT
Moon 12:12 AM EDT (6/30) 1:34 PM EDT (6/30)
Length of Visible Light 16h 43m
Length of Day
15h 30m
Last Quarter, 45% of the Moon is Illuminated
Jun 30
Last Quarter
Jul 8
New
Jul 15
First Quarter
Jul 22
Full
Jul 29
Last Quarter

Hourly Weather History & Observations

Time (EDT) Temp. Heat Index Dew Point Humidity Pressure Visibility Wind Dir Wind Speed Gust Speed Precip Events Conditions
12:52 AM 63.0 °F - 62.1 °F 97% 29.70 in 9.0 mi Calm Calm - N/A   Overcast
1:52 AM 63.0 °F - 61.0 °F 93% 29.70 in 9.0 mi Calm Calm - N/A   Overcast
2:52 AM 63.0 °F - 61.0 °F 93% 29.71 in 9.0 mi Calm Calm - N/A   Overcast
3:52 AM 62.1 °F - 60.1 °F 93% 29.72 in 10.0 mi Calm Calm - N/A   Overcast
4:52 AM 62.1 °F - 61.0 °F 96% 29.74 in 7.0 mi Calm Calm - N/A   Overcast
5:52 AM 62.1 °F - 61.0 °F 96% 29.75 in 8.0 mi Calm Calm - N/A   Mostly Cloudy
6:52 AM 66.0 °F - 63.0 °F 90% 29.77 in 10.0 mi Calm Calm - N/A   Mostly Cloudy
7:26 AM 69.8 °F - 64.4 °F 83% 29.79 in 10.0 mi North 4.6 mph - N/A   Scattered Clouds
7:52 AM 70.0 °F - 64.0 °F 81% 29.80 in 10.0 mi Calm Calm - N/A   Mostly Cloudy
8:05 AM 71.6 °F - 64.4 °F 78% 29.81 in 10.0 mi Calm Calm - N/A   Overcast
8:33 AM 73.4 °F - 64.4 °F 73% 29.82 in 10.0 mi Calm Calm - N/A   Overcast
8:52 AM 72.0 °F - 63.0 °F 73% 29.81 in 10.0 mi Calm Calm - N/A   Mostly Cloudy
9:52 AM 75.0 °F - 60.1 °F 60% 29.82 in 10.0 mi WSW 3.5 mph - N/A   Scattered Clouds
10:52 AM 78.1 °F - 59.0 °F 52% 29.83 in 10.0 mi Calm Calm - N/A   Scattered Clouds
11:52 AM 77.0 °F - 59.0 °F 54% 29.83 in 10.0 mi Calm Calm - N/A   Scattered Clouds
12:52 PM 80.1 °F 80.9 °F 60.1 °F 50% 29.83 in 10.0 mi NNW 5.8 mph - N/A   Mostly Cloudy
1:52 PM 80.1 °F 81.1 °F 61.0 °F 52% 29.83 in 10.0 mi WNW 3.5 mph - N/A   Mostly Cloudy
2:52 PM 82.0 °F 82.4 °F 60.1 °F 47% 29.83 in 10.0 mi Variable 3.5 mph - N/A   Scattered Clouds
3:52 PM 82.9 °F 83.3 °F 61.0 °F 47% 29.83 in 10.0 mi Variable 4.6 mph - N/A   Mostly Cloudy
4:52 PM 81.0 °F 82.2 °F 63.0 °F 54% 29.84 in 10.0 mi Calm Calm - N/A   Mostly Cloudy
5:52 PM 82.9 °F 84.0 °F 63.0 °F 51% 29.85 in 10.0 mi NNW 5.8 mph - N/A   Clear
6:52 PM 80.1 °F 81.5 °F 63.0 °F 56% 29.86 in 10.0 mi Calm Calm - N/A   Clear
7:52 PM 77.0 °F - 66.0 °F 69% 29.87 in 10.0 mi SSE 3.5 mph - N/A   Clear
8:52 PM 73.0 °F - 68.0 °F 84% 29.89 in 10.0 mi Calm Calm - N/A   Mostly Cloudy
9:52 PM 70.0 °F - 68.0 °F 93% 29.92 in 5.0 mi Calm Calm - 0.05 in Rain Rain
10:52 PM 69.1 °F - 66.9 °F 93% 29.94 in 8.0 mi Calm Calm - 0.02 in Rain Light Rain
11:52 PM 69.1 °F - 66.9 °F 93% 29.94 in 6.0 mi Calm Calm - 0.01 in   Overcast